Location: Unspecified
(49.2170°N, 0.0000°E)
Time: 07:26:25
(UTC+00:00)

Transit 2A - Pass Details

Date: 21 June 2019
Orbit: 595 x 964 km, 66.7° (Epoch: 21 July)

Event Time Altitude Azimuth Distance (km) Brightness Sun altitude
Rises 22:43:26 0° 156° (SSE) 3,620 - -15.3°
Reaches altitude 10° 22:47:09 10° 135° (SE) 2,696 - -15.5°
Exits shadow 22:48:37 13° 122° (ESE) 2,470 8.2 -15.5°
Maximum altitude 22:50:31 15° 102° (ESE) 2,353 8.2 -15.6°
Drops below altitude 10° 22:53:51 10° 70° (ENE) 2,688 8.9 -15.8°
Sets 22:57:32 0° 49° (NE) 3,603 9.8 -15.9°
